Terug naar catalogus

STARLINK-35380

ActiefCommunicatieVLEO
NORAD 65905·PAYLOAD·🇺🇸 United States

Gelanceerd Oct 7, 2025 vanaf Cape Canaveral Space Force Station

Loading…

Volgende Passages (komende 24 uur)

TLE

VersSource: CelesTrak SupGP

Epoch: Sep 14, 2026, 21:12 UTC

1 65905C 25224Z   26257.88381944  .00034511  00000+0  10205-2 0  2577
2 65905  53.1583 211.6558 0001588  78.4813 273.6755 15.34347492    11

Volg STARLINK-35380 in realtime met AllMySat

Download on the App Store